Location: Dampierre
(49.5325°N, 1.6596°E)
Time: 18:15:01
(UTC+00:00)

Daily predictions for brighter satellites

Satellite Brightness Start Highest point End
(mag) Time Altitude Azimuth Time Altitude Azimuth Time Altitude Azimuth
BREEZE-M DEB (TANK) 4.3 16:47:12 10° SW 16:52:06 68° SSE 17:10:16 10° ENE
Cosmos 2297 4.1 16:47:38 10° NNW 16:53:16 73° WSW 16:58:54 10° SSE
Cosmos 1190 Rocket 4.2 16:48:24 10° NNW 16:53:37 79° WSW 16:58:46 10° SSE
SL-4 R/B 3.9 16:51:13 10° W 16:54:47 32° SW 16:58:17 10° SSE
Cosmos 1624 Rocket 4.3 16:50:29 10° S 16:55:35 54° ESE 17:00:45 10° NNE
NOSS 2-3 (C) 4.2 16:50:58 10° NW 16:55:55 76° NE 17:02:47 10° SE
SL-14 R/B 3.8 16:54:50 10° SSW 16:58:41 63° WNW 17:02:33 10° N
Cosmos 2263 4.5 16:54:37 10° NNW 17:00:20 78° WSW 17:05:57 10° SSE
IRS-1C 4.2 16:59:41 10° SE 17:04:51 55° ENE 17:10:03 10° N
Thor Agena Rocket 3.4 17:01:36 10° SSE 17:06:37 79° ENE 17:11:40 10° NNW
Cosmos 2237 Rocket 3.9 17:02:49 10° W 17:07:25 25° NW 17:12:03 10° NNE
USA 276 4.0 17:06:34 10° SSE 17:07:34 12° SE 17:08:37 10° ESE
NOSS 2-3 (E) 4.5 17:02:38 10° NW 17:07:42 81° SW 17:14:34 10° SE
Cosmos 676 Rocket 4.0 17:02:38 10° NNW 17:07:51 87° ENE 17:13:04 10° SSE
SPOT 1/Viking Rocket 4.0 17:03:13 10° SE 17:07:54 37° ENE 17:12:35 10° N
Cosmos 1151 Rocket 4.3 17:06:38 10° SSW 17:10:41 42° WNW 17:14:46 10° N
SL-16 R/B 2.8 17:05:50 10° SW 17:11:25 59° WNW 17:17:02 10° NNE
SL-16 R/B 2.7 17:05:51 10° NNE 17:12:02 78° WNW 17:18:11 10° SSW
CORIOLIS 4.3 17:08:39 10° SSE 17:14:03 86° WSW 17:19:32 10° NNW
NOSS 3-4 (A) 3.9 17:09:50 10° S 17:14:32 34° ESE 17:19:30 11° NE
NOSS 3-4 (C) 3.9 17:10:00 10° S 17:14:42 34° ESE 17:19:40 11° NE
BREEZE-M DEB (TANK) 1.9 17:14:13 10° W 17:17:09 85° SSW 17:19:27 10° E
Cosmos 1703 3.6 17:17:09 10° SSE 17:20:06 30° E 17:23:04 10° NNE
SAR-Lupe-4 3.9 17:17:30 10° SE 17:20:53 41° ENE 17:24:18 10° N
CZ-2D R/B 2.7 17:18:23 10° SSE 17:21:28 59° ENE 17:24:34 10° N
ATLAS 3B R/B 4.0 17:14:46 10° W 17:21:53 37° NNW 17:29:07 10° NE
SJ-12 3.7 17:18:14 10° SSE 17:22:00 64° ENE 17:25:48 10° N
Cosmos 2366 rocket 4.0 17:15:52 10° N 17:22:12 67° ENE 17:28:31 10° SSE
Cosmos 1484 Rocket 4.4 17:21:48 10° SSW 17:24:50 32° W 17:27:54 10° NNW
USA 59 Rocket 1.2 17:22:44 10° N 17:24:50 16° NNE 17:26:01 14° NE
ATLAS 5 CENTAUR R/B 0.5 17:21:54 10° SW 17:24:53 89° ESE 17:27:38 13° NE
Dummy Sat-02 4.5 17:21:30 10° N 17:25:07 89° E 17:28:43 10° S
Meteor 1-23 Rocket 4.5 17:19:53 10° SSE 17:25:17 48° E 17:30:40 10° NNE
COSMO-SKYMED 1 3.9 17:22:52 12° NE 17:25:19 18° E 17:28:12 10° SE
Cosmos 1452 Rocket 4.4 17:21:23 10° SSE 17:25:52 30° E 17:30:15 11° NE
Cosmos 1633 Rocket 3.0 17:22:09 10° N 17:26:28 86° W 17:30:46 10° S
Cosmos 2218 Rocket 4.0 17:20:10 10° N 17:26:35 67° ENE 17:32:56 10° SSE
Cosmos 1656 4.1 17:26:57 10° NNW 17:32:14 39° NE 17:37:25 10° ESE
Meteor 1-16 Rocket 4.2 17:27:53 10° N 17:33:06 54° ENE 17:38:22 10° SSE
Cosmos 332 Rocket 3.7 17:30:05 10° NNW 17:34:53 74° ENE 17:39:40 10° SSE
Cosmos 1666 Rocket 4.3 17:31:46 10° NNW 17:36:08 58° W 17:40:29 10° S
Meteor 1-21 4.3 17:31:27 10° S 17:36:52 53° E 17:42:18 10° NNE
Cosmos 1953 2.0 17:33:55 10° N 17:37:38 78° E 17:41:20 10° SSE
Resurs 1-3 4.0 17:34:29 10° SE 17:38:30 39° ENE 17:42:31 10° N
ISS -2.6 17:36:53 10° SSW 17:39:53 31° SSE 17:41:35 20° E
UNK 3.9 17:37:37 10° N 17:42:08 72° WNW 17:46:37 10° SSW
Cosmos 2341 Rocket 4.1 17:35:47 10° N 17:42:10 85° W 17:48:26 10° S
BREEZE-M DEB (TANK) 3.0 17:36:41 10° W 17:42:15 81° N 17:45:23 19° ENE
Cosmos 1980 Rocket 3.8 17:40:01 10° N 17:43:02 15° NNE 17:44:09 14° NE
BREEZE-M DEB (TANK) 3.3 17:40:54 10° W 17:43:29 51° SSW 17:51:39 10° ESE
Cosmos 1340 Rocket 3.3 17:40:07 10° N 17:43:38 34° ENE 17:47:09 10° SE
ERS-1 4.5 17:38:59 10° SSE 17:43:57 87° WSW 17:49:00 10° NNW
Cosmos 1328 Rocket 4.0 17:40:34 10° SSW 17:44:53 63° WNW 17:49:17 10° N
NOSS 3-1 (C) 4.5 17:39:16 10° NW 17:45:03 34° NNE 17:50:01 18° E
MOS 1 Rocket 4.0 17:40:13 10° S 17:45:27 65° W 17:50:29 10° NNW
Spot 4 Rocket 4.2 17:42:02 10° SE 17:46:55 47° ENE 17:51:49 10° N
USA 215 4.2 17:44:40 17° E 17:48:39 29° SE 17:54:11 10° S
IRS-P3 4.1 17:43:33 10° SSE 17:48:51 88° ENE 17:54:12 10° NNW
Cosmos 1959 Rocket 4.4 17:43:44 10° N 17:49:53 89° E 17:56:03 10° S
Nadezhda 3 Rocket 4.4 17:48:43 10° SSE 17:54:18 39° E 17:59:57 10° NNE
SKYMED 2 3.6 17:51:02 10° NNE 17:55:20 57° E 17:59:37 10° S
Meteor 1-12 Rocket 4.1 17:51:16 10° N 17:56:57 76° ENE 18:02:35 10° SSE
Okean 3 4.0 17:56:14 10° SSE 17:59:54 33° E 18:01:04 28° ENE
COSMOS 2455 3.9 17:56:11 10° NNW 18:01:16 27° NNE 18:03:11 23° ENE
NOSS 2-1 (D) 4.2 17:59:11 10° NNW 18:01:40 24° NNE 18:01:40 24° NNE
Cosmos 2056 Rocket 4.4 17:57:09 10° SW 18:02:05 46° WNW 18:07:00 10° NNE
SJ 16-02 4.4 18:01:08 10° NW 18:04:01 18° W 18:06:55 10° SW
PSLV R/B 3.5 18:01:25 10° SE 18:05:26 51° ENE 18:09:31 10° N
CZ-4 R/B 4.5 18:01:53 10° S 18:05:50 77° WSW 18:09:49 10° NNW
ARIANE 5 R/B 3.6 18:02:07 10° S 18:07:09 47° W 18:12:11 10° NNW
Cosmos 1697 Rocket 3.5 18:03:26 10° NNW 18:08:26 31° NE 18:09:49 27° ENE
YAOGAN 1 2.4 18:05:44 10° SSE 18:09:59 78° ENE 18:14:16 10° N
Cosmos 1515 Rocket 3.6 18:05:34 10° SSW 18:09:59 82° WNW 18:14:27 10° N
Cosmos 1603 3.6 18:05:33 10° SSW 18:11:13 84° ESE 18:15:42 17° NNE
Cosmos 1833 Rocket 3.8 18:14:51 10° SSE 18:18:29 24° ESE 18:18:29 24° ESE
Resurs 01 Rocket 1.8 18:15:41 10° SE 18:19:50 46° ENE 18:24:02 10° N
Okean 2 3.1 18:19:21 10° S 18:23:13 88° E 18:25:32 23° N
SL-24 R/B - RUBIN 2 3.7 18:19:41 10° NW 18:24:03 72° SW 18:27:55 13° SSE
USA 267 3.3 18:20:26 27° E 18:24:12 68° NNE 18:30:42 10° WNW
RESURS DK-1 2.2 18:28:04 10° SSW 18:32:00 62° ESE 18:32:05 62° ESE
Cosmos 1943 4.4 18:28:40 10° WSW 18:33:56 39° NW 18:38:48 12° NNE
Cosmos 292 Rocket 4.1 18:29:31 10° NNW 18:34:11 63° WSW 18:38:48 10° S
BREEZE-M DEB (TANK) 3.1 18:35:05 10° SW 18:37:47 58° SSE 18:38:15 53° ESE
Cosmos 1933 Rocket 4.3 18:33:46 10° NNW 18:38:03 53° W 18:42:17 10° S
Cosmos 1331 Rocket 4.4 18:33:28 10° SW 18:38:32 59° WNW 18:42:22 18° NNE
USA 276 4.0 18:37:38 10° WSW 18:38:41 22° SW 18:38:41 22° SW
CZ-2D R/B 4.2 18:36:47 10° S 18:40:31 48° W 18:44:14 10° NNW
Cosmos 1605 Rocket 4.3 18:37:44 10° N 18:43:49 43° ENE 18:43:51 43° ENE
Cosmos 2360 4.2 18:41:13 10° NNW 18:46:58 82° WSW 18:52:21 12° SSE
Cosmos 1302 Rocket 3.9 18:43:44 10° SSW 18:48:59 81° ESE 18:50:34 47° NNE
Cosmos 1339 Rocket 4.3 18:47:37 10° S 18:53:47 78° E 18:59:56 10° NNE
Cosmos 2333 Rocket 4.4 18:51:28 10° N 18:52:46 12° NNE 18:52:46 12° NNE
SL-16 R/B 4.5 18:53:15 10° WNW 18:56:46 16° NNW 19:00:17 10° N
COSMO-SKYMED 1 3.2 18:59:10 30° NNW 19:00:53 49° WNW 19:04:51 10° SW
Cosmos 2322 Rocket 4.5 19:01:29 10° N 19:01:47 10° N 19:01:47 10° N
NOSS 3-4 (A) 3.7 18:59:50 10° WSW 19:05:05 53° NW 19:06:57 38° NNE
NOSS 3-4 (C) 3.7 18:59:57 10° WSW 19:05:13 54° NW 19:07:06 38° NNE
CARTOSAT-1 4.3 19:01:20 10° S 19:05:26 49° W 19:09:33 10° NNW
Cosmos 1452 Rocket 4.4 19:02:39 10° SW 19:07:42 46° WNW 19:10:32 24° N
ATLAS 5 CENTAUR R/B 3.5 19:05:45 10° WNW 19:07:02 15° NW 19:07:02 15° NW
DNEPR-1 R/B 4.3 19:06:31 10° WSW 19:10:41 47° NW 19:10:41 47° NW
USA 59 Rocket 1.6 19:10:26 10° NW 19:11:42 23° NW 19:11:42 23° NW
ATLAS 3B R/B 4.1 19:08:16 10° NW 19:14:56 28° N 19:16:43 26° NNE
ISS -1.3 19:13:09 10° W 19:14:32 23° W 19:14:32 23° W
Cosmos 1934 Rocket 4.2 19:14:13 10° NNW 19:20:19 70° W 19:26:28 10° S
NOSS 3-1 (A) 4.2 19:14:33 10° NW 19:20:50 48° NNE 19:20:50 48° NNE
Cosmos 1980 Rocket 3.4 19:22:59 10° NNW 19:25:55 29° N 19:25:55 29° N
USA 215 3.1 19:32:01 81° ESE 19:32:16 83° SE 19:38:49 10° SW
NOSS 3-1 (C) 3.8 19:29:46 10° NW 19:36:42 85° NE 19:37:23 76° ESE
BREEZE-M DEB (TANK) 3.8 19:38:53 10° W 19:43:06 89° S 19:43:30 81° E
COSMOS 2455 3.4 19:41:55 10° NW 19:46:20 51° NW 19:46:20 51° NW
Cosmos 1697 Rocket 3.5 19:47:11 10° NW 19:51:35 49° WNW 19:51:35 49° WNW
Resurs 01 Rocket 3.9 19:53:03 10° SW 19:56:26 22° W 19:59:51 10° NW
Cosmos 1833 Rocket 4.1 19:57:11 10° SW 20:00:13 32° SW 20:00:13 32° SW
USA 267 3.7 20:07:46 53° SW 20:07:46 53° SW 20:13:46 10° WNW
